Regional Weather Roundup
Issued by NWS Midland/Odessa, TX

Skip options and go directly to product.
Home | Oldest Version | Next Version | Current Version | All | Text Only | Save Text | Print | Product List | Glossary On

Skip product version selection by date and time.   
051
ASUS44 KMAF 262210
RWRMAF
MIDLAND AREA WEATHER ROUNDUP
NATIONAL WEATHER SERVICE MIDLAND TX
500 PM CDT THU MAY 26 2016

...IN SOUTHWEST TEXAS AND SOUTHEAST NEW MEXICO...

CITY           SKY/WX    TMP DP  RH WIND       PRES   REMARKS
ALPINE         PTSUNNY   89  37  16 W23G30    29.90F
ANDREWS        FAIR      90  30  11 W14G20    29.74F
ARTESIA        SUNNY     88  23   9 SW26G37   29.78F
BIG SPRING     CLOUDY    83  49  30 SE18G28   29.73S
CARLSBAD       SUNNY     92  22   8 SW24G32   29.74F
DRYDEN           N/A     81  61  50 SE10      29.75R
FORT STOCKTON  SUNNY     98  37  12 W22G35    29.72F
GUAD PASS      NOT AVBL
HOBBS          SUNNY     90  19   7 SW25G37   29.77F
MARFA          CLOUDY    84  38  19 S17G33    29.89F
MIDLAND AIRPK  CLOUDY    94  34  12 SW17      29.73S
MIDLAND INTL   CLOUDY    94  39  14 SW21G29   29.73S
ODESSA         CLOUDY    89  44  20 S9        29.74F
PECOS          CLOUDY    97  33  10 SW18G30   29.68F
PRESIDIO       FAIR      96  38  13 S18G25    29.73
SEMINOLE       SUNNY     92  28  10 W24       29.76F
SNYDER           N/A     95  37  13 SW16G22   29.70F
WINK           MOSUNNY   94  36  13 W15G22    29.68F
$$
...OTHER STATIONS IN TEXAS...

CITY           SKY/WX    TMP DP  RH WIND       PRES   REMARKS
ABILENE        SUNNY     88  67  49 S15       29.72F
AMARILLO       SUNNY     88  32  13 SW26G36   29.73F
AUSTIN         PTSUNNY   87  77  72 S13       29.75F
BROWNSVILLE    MOSUNNY   88  75  65 S24G31    29.79F
CORPUS CHRISTI PTSUNNY   86  76  71 SE22G28   29.76F
DALLAS FTW     PTSUNNY   78  66  66 SE17      29.81S
DEL RIO        CLOUDY    91  72  53 SE14      29.68F
EL PASO        MOSUNNY   86  15   7 SW25G46   29.82F
HOUSTON INT    CLOUDY    79  72  79 SE22      29.83R THUNDER
LUBBOCK        MOSUNNY   91  31  11 SW21G28   29.71F
SAN ANGELO       N/A    N/A N/A N/A MISG      29.71F
SAN ANTONIO    MOSUNNY   91  74  57 S16       29.75F HX 100
WACO           CLOUDY    76  69  79 E17G26    29.81F
WICHITA FALLS  NOT AVBL
$$
...OTHER LOCATIONS IN NEW MEXICO...

CITY           SKY/WX    TMP DP  RH WIND       PRES   REMARKS
ALAMAGORDO     SUNNY     81  16   9 W17G29    29.86F
ALBUQUERQUE    PTSUNNY   72  14  11 W17G31    29.85F
CANNON AFB     NOT AVBL
CLOVIS         SUNNY     84  25  11 SW30      29.76F
HOLLOMAN AFB   SUNNY     80  13   8 W23G32    29.84F
ROSWELL        SUNNY     87  16   7 SW23G36   29.76F
RUIDOSO          N/A     66  10  11 SW23G41   29.98F
SANTA FE       CLOUDY    67  13  12 W20G26    29.88S
TRUTH OR CONSE SUNNY     77   8   7 W15G26    29.86F
TUCUMCARI      SUNNY     87  13   6 SW26G35   29.72F
$$

USA.gov is the U.S. government's official web portal to all federal, state and local government web resources and services.